Location: Casper
(42.8670°N, 106.3130°W)
Time: 06:12:59
(UTC-07:00)

Daily predictions for brighter satellites

Satellite Brightness Start Highest point End
(mag) Time Altitude Azimuth Time Altitude Azimuth Time Altitude Azimuth
Cosmos 1634 Rocket 4.0 17:29:38 10° N 17:35:48 64° E 17:41:53 10° SSE
CZ-4 R/B 4.5 17:32:21 10° SSE 17:36:25 59° ENE 17:40:30 10° N
BREEZE-M DEB (TANK) 3.5 17:39:50 10° SSW 17:41:58 22° SE 17:43:55 10° E
Cosmos 2297 4.3 17:37:23 10° N 17:42:33 34° NE 17:47:43 10° ESE
AQUARIUS 4.4 17:38:17 10° S 17:42:46 77° WSW 17:47:18 10° NNW
Lacrosse 5 3.7 17:41:51 10° WNW 17:45:25 19° NNW 17:48:58 10° NNE
OTV 4 3.2 17:43:45 10° WSW 17:45:48 17° SSW 17:47:50 10° SSE
Cosmos 1844 Rocket 3.9 17:44:00 10° NW 17:49:26 49° WSW 17:54:49 10° S
Meteor 1-28 Rocket 4.2 17:46:40 10° NE 17:49:49 26° E 17:52:58 10° SSE
BREEZE-M DEB (TANK) 1.6 17:46:43 10° SW 17:49:53 59° SSE 17:51:40 14° ENE
Transit 2A Rocket 4.4 17:51:24 10° NNW 17:55:42 64° ENE 17:59:59 10° SE
CZ-3A R/B 3.2 17:50:37 10° NW 17:55:50 43° NNE 18:00:43 10° ESE
Cosmos 1125 Rocket 3.6 17:50:36 10° NNW 17:55:50 86° WSW 18:01:01 10° SSE
Cosmos 1707 Rocket 4.5 17:52:27 10° NNE 17:56:05 25° ENE 17:59:43 10° SE
USA 116 4.2 17:53:29 10° N 17:56:34 47° WNW 17:59:33 10° SSW
COSMO-SKYMED 1 2.8 17:52:22 10° NNE 17:56:36 49° E 18:00:49 10° S
YAOGAN 1 3.2 17:52:38 10° S 17:56:55 62° W 18:01:14 10° NNW
CZ-2C R/B 3.5 17:52:51 10° S 17:57:40 49° W 18:02:21 10° NNW
Meteor 2-10 4.1 17:52:47 10° N 17:57:48 55° ENE 18:02:56 10° SSE
Lacrosse 5 rocket 1.1 18:00:44 10° NW 18:04:31 86° NE 18:08:30 10° SE
Thor Agena Rocket 3.9 17:59:23 10° N 18:04:37 71° WNW 18:09:45 10° SSW
CENTAUR R/B 3.7 17:59:25 10° WSW 18:05:16 40° NW 18:11:52 10° NNE
Resurs 01 Rocket 3.1 18:03:49 13° E 18:05:54 17° ENE 18:08:47 10° NNE
SPOT 3 Rocket 4.5 18:02:40 10° S 18:07:41 53° W 18:12:45 10° NNW
Cosmos 1666 Rocket 4.5 18:04:05 10° SE 18:07:41 26° E 18:11:21 10° NNE
BREEZE M DEB (TANK) 1.2 18:05:37 10° WNW 18:08:30 63° NNE 18:09:43 22° ESE
MSX 4.4 18:04:53 10° S 18:10:32 62° W 18:16:14 10° NNW
Meteor 1-11 4.2 18:06:58 10° S 18:12:38 74° E 18:18:24 10° NNE
Cosmos 1980 3.9 18:07:44 10° SSW 18:13:25 76° WNW 18:19:07 10° NNE
Cosmos 2151 3.0 18:09:16 10° S 18:13:27 80° W 18:17:41 10° N
Timation 1 Rocket 4.3 18:09:12 10° NNW 18:15:13 67° ENE 18:21:11 10° SE
METEOR-M 4.3 18:10:11 10° SE 18:15:17 47° ENE 18:20:24 10° N
Iridium 4 Rocket 4.2 18:16:22 10° SE 18:19:42 21° E 18:19:42 21° E
ATLAS 5 CENTAUR R/B 4.2 18:20:02 10° N 18:21:58 12° NNE 18:23:24 11° NE
CZ-4 R/B 4.2 18:19:26 10° SW 18:22:21 20° W 18:25:17 10° NW
Cosmos 44 3.8 18:17:10 10° SW 18:22:22 62° NW 18:27:14 11° NNE
BREEZE-M DEB (TANK) 3.9 18:22:02 10° SSE 18:22:33 13° SSE 18:22:33 13° SSE
Cosmos 2279 Rocket 4.0 18:18:12 10° N 18:24:27 89° E 18:30:42 10° S
ALOS 3.0 18:21:49 10° SE 18:25:49 29° ENE 18:29:49 10° N
Cosmos 1626 2.3 18:25:38 10° SSE 18:29:13 47° E 18:31:36 19° NNE
NOAA 12 4.0 18:25:55 10° SSE 18:31:06 70° ENE 18:36:22 10° N
Cosmos 2333 Rocket 3.2 18:27:31 10° SW 18:32:55 46° WNW 18:38:22 10° NNE
Cosmos 2219 Rocket 3.6 18:28:50 10° WSW 18:33:59 36° WNW 18:39:09 10° N
Aureole 2 Rocket 3.2 18:30:36 10° SSW 18:34:18 61° WNW 18:38:20 10° NNE
SJ-6B 2.9 18:30:47 10° SSE 18:34:46 58° ENE 18:38:51 10° N
Cosmos 2242 Rocket 4.0 18:33:29 10° N 18:37:35 36° ENE 18:41:41 10° SE
Cosmos 1703 3.1 18:34:25 10° S 18:38:19 85° E 18:42:14 10° N
Cosmos 1455 2.2 18:37:02 10° N 18:40:47 55° E 18:44:31 10° SSE
Cosmos 2278 Rocket 3.6 18:38:44 10° NW 18:43:59 40° WSW 18:49:13 10° S
SKYMED 2 4.5 18:40:29 10° N 18:44:40 49° WNW 18:48:51 10° SSW
Nadezhda 4 Rocket 3.9 18:38:58 10° S 18:45:08 66° E 18:51:24 10° NNE
Cosmos 1805 Rocket 3.6 18:41:36 10° S 18:46:04 81° W 18:50:33 10° N
Lacrosse 4 Rocket 2.1 18:45:35 10° NNW 18:48:34 33° NNE 18:48:34 33° NNE
FREGAT/IRIS 2.5 18:48:46 10° SSE 18:51:49 86° WSW 18:54:53 10° NNW
Cosmos 773 Rocket 4.0 18:52:50 10° S 18:57:53 58° ESE 18:59:33 39° NE
Abrixas 3.5 18:56:24 10° W 18:58:45 41° NW 18:58:45 41° NW
SL-19 R/B 4.2 18:53:45 10° SSE 18:59:37 75° ENE 19:05:14 10° NNW
Cosmos 1340 Rocket 4.4 18:59:17 10° SW 19:02:54 34° WNW 19:06:32 10° N
Sich 1 3.1 18:58:51 10° S 19:03:18 81° W 19:06:46 16° N
Cosmos 1092 Rocket 3.9 18:59:17 10° S 19:05:33 68° E 19:11:52 10° NNE
Cosmos 1461 3.4 19:05:02 10° SW 19:09:08 55° NW 19:10:07 43° N
Cosmos 2237 Rocket 3.8 19:04:26 10° WSW 19:09:24 31° NW 19:14:26 10° N
Cosmos 1633 Rocket 3.1 19:06:28 10° SSW 19:10:52 76° W 19:13:18 26° N
Cosmos 2369 Rocket 3.5 19:08:24 10° N 19:11:17 24° NNE 19:11:17 24° NNE
USA 215 3.3 19:08:59 21° SE 19:13:42 78° SW 19:20:17 10° NW
SL-16 R/B 2.6 19:10:31 10° SW 19:16:06 60° WNW 19:19:54 21° NNE
ATLAS 3B R/B 4.5 19:12:41 10° NNW 19:16:24 15° NNE 19:17:08 14° NNE
Orbus 7S? 4.5 19:21:45 10° NW 19:26:12 81° NE 19:29:23 40° SE
Lacrosse 5 3.8 19:26:43 10° NNW 19:29:18 17° N 19:29:18 17° N
Cosmos 2195 Rocket 4.3 19:24:39 10° S 19:30:42 70° E 19:30:58 69° ENE
Resurs 01 Rocket 2.4 19:41:21 47° SW 19:41:58 50° W 19:46:19 10° NNW
Lacrosse 5 rocket 4.3 19:41:57 10° WSW 19:43:14 11° WSW 19:44:33 10° SW
Spot 2 Rocket 4.0 19:38:42 10° S 19:43:38 56° W 19:48:36 10° NNW
Aureole 1 Rocket 4.2 19:39:05 10° SSW 19:44:28 64° WNW 19:48:30 26° N
CZ-4C R/B 4.2 19:44:35 10° NNW 19:48:11 22° N 19:48:11 22° N
FENGYUN 3A 4.5 19:45:11 10° S 19:50:20 48° W 19:55:33 10° NNW
USA 229 DEB 3.8 19:52:07 10° SW 19:58:57 72° NW 19:59:44 66° N
USA 229 3.8 19:52:12 10° SW 19:59:03 72° NW 19:59:47 67° N
ALOS 4.0 19:59:05 10° SSW 20:03:11 30° W 20:07:18 10° NW
ATLAS 5 CENTAUR R/B 4.2 20:03:10 10° NNW 20:04:58 19° N 20:04:58 19° N
BREEZE-M DEB (TANK) 4.5 20:05:52 10° SSW 20:34:49 11° ENE 20:36:20 10° ENE
